Location: Góry Miechowskie
(50.3599°N, 20.1803°E)
Time: 23:01:53
(UTC+00:00)

Cosmos 1869 - Pass Details

Date: 21 September 2024
Orbit: 484 x 518 km, 82.5° (Epoch: 06 October)

Event Time Altitude Azimuth Distance (km) Brightness Sun altitude
Exits shadow 01:14:15 13° 348° (NNW) 1,514 5.9 -28.5°
Drops below altitude 10° 01:14:50 10° 353° (N) 1,722 6.2 -28.5°
Sets 01:17:06 0° 3° (N) 2,604 7.4 -28.2°
